Location: *
(43.9365°S, 179.6677°E)
Time: 14:01:18
(UTC+00:00)

Daily predictions for brighter satellites

Satellite Brightness Start Highest point End
(mag) Time Altitude Azimuth Time Altitude Azimuth Time Altitude Azimuth
Cosmos 2242 Rocket 3.7 12:02:08 10° SSW 12:06:37 66° W 12:06:37 66° W
Cosmos 1400 Rocket 3.9 12:04:21 10° S 12:08:09 36° ESE 12:08:16 36° ESE
GP-B 3.0 12:05:17 10° S 12:09:46 88° SSE 12:09:46 88° SSE
ASTEX 1 4.3 12:15:05 36° W 12:15:26 36° W 12:20:06 10° SSW
Meteor 2-5 Rocket 4.0 12:12:34 10° S 12:18:20 62° ESE 12:19:55 45° NE
Cosmos 2181 Rocket 4.4 12:21:56 43° NW 12:23:49 57° WSW 12:30:12 10° S
SL-24 DEB 4.1 12:25:03 10° S 12:29:49 85° E 12:30:08 78° NNE
Cosmos 1697 Rocket 2.6 12:27:59 10° SSW 12:33:44 77° WNW 12:34:49 59° N
Cosmos 1908 Rocket 4.5 12:35:50 37° ENE 12:36:18 38° E 12:40:30 10° SSE
SL-08 R/B 4.4 12:30:07 10° S 12:36:23 86° E 12:38:12 49° NNE
Cosmos 1378 Rocket 3.5 12:33:26 10° S 12:37:51 76° E 12:38:03 74° ENE
Cosmos 1733 Rocket 3.1 12:39:19 64° W 12:39:23 64° W 12:43:48 10° S
H-2A R/B 4.2 12:40:24 42° WSW 12:40:24 42° WSW 12:43:55 10° SSW
Cosmos 2208 Rocket 4.0 12:35:13 10° SSW 12:40:39 90° NNE 12:41:48 57° NNE
NOSS 3-1 (C) 3.9 12:35:10 10° SSW 12:41:41 56° SE 12:46:03 15° ENE
ADEOS II 3.1 12:39:42 25° ENE 12:42:18 43° ESE 12:47:19 10° S
Cosmos 1703 3.7 12:38:40 10° S 12:42:27 52° ESE 12:42:27 52° ESE
Cosmos 2098 Rocket 4.2 12:43:49 24° ESE 12:43:49 24° ESE 12:45:37 10° SSE
Cosmos 1908 3.8 12:43:57 50° SW 12:43:57 50° SW 12:47:13 10° S
Meteor 1-22 Rocket 4.1 12:43:17 58° NW 12:44:15 73° WSW 12:49:37 10° S
USA 215 3.3 12:42:47 45° N 12:44:21 55° NW 12:50:51 10° WSW
Cosmos 2221 Rocket 3.5 12:41:05 10° S 12:45:42 85° E 12:46:05 75° NNE
Meteor 1-15 Rocket 4.4 12:44:42 50° NW 12:46:05 65° WSW 12:51:50 10° S
Cosmos 1470 4.2 12:46:51 27° WSW 12:46:51 27° WSW 12:50:04 10° SSW
Resurs 1-4 Rocket 2.0 12:51:34 50° NNE 12:53:00 85° ESE 12:58:22 10° SSW
SL-16 R/B 4.4 12:48:46 10° S 12:53:16 23° SE 12:57:42 10° E
COSMOS 2406 3.3 12:53:14 49° NNE 12:54:36 65° ENE 13:00:21 10° SSE
Cosmos 1900 4.4 12:49:47 10° SSW 12:54:42 74° ESE 12:56:20 41° NE
Lacrosse 5 rocket 3.7 12:54:30 10° SSW 12:57:20 21° SSE 13:00:13 10° ESE
IDEFIX/ARIANE 42P 2.5 12:56:10 51° NNE 12:57:33 90° ESE 13:02:54 10° SSW
USA 81 4.2 12:56:54 50° NW 12:57:53 59° W 13:03:10 10° S
ATLAS CENTAUR R/B 3.8 12:54:28 10° SSW 12:58:10 24° SE 13:01:46 10° E
Cosmos 1980 Rocket 2.1 12:56:47 10° SSW 13:02:33 88° ESE 13:04:48 39° NNE
Cosmos 2369 3.8 12:56:50 10° SSW 13:02:35 76° ESE 13:05:23 31° NE
CZ-2D R/B 2.1 13:01:05 49° N 13:02:41 84° WNW 13:08:17 10° SSW
ALOS 4.2 13:01:30 10° ENE 13:05:20 26° ESE 13:09:12 10° S
BREEZE-M DEB (TANK) 4.2 13:05:52 10° W 13:11:49 39° SSW 13:14:29 10° ESE
Cosmos 1339 Rocket 4.4 13:11:11 43° N 13:13:28 87° W 13:19:54 10° S
Cosmos 1356 Rocket 3.8 13:09:27 10° SSW 13:13:28 48° W 13:13:28 48° W
Cosmos 773 Rocket 4.2 13:08:14 10° SSW 13:13:36 70° ESE 13:16:19 29° NE
Cosmos 1825 4.1 13:13:39 10° SSE 13:16:40 24° ESE 13:18:15 18° ENE
Cosmos 1833 Rocket 4.1 13:15:24 20° W 13:18:12 29° SW 13:23:08 10° S
ALOS 2 3.9 13:15:59 10° S 13:19:51 29° WSW 13:20:42 27° W
Cosmos 1340 2.8 13:21:18 58° WSW 13:21:18 58° WSW 13:24:42 10° S
Cosmos 1300 2.7 13:21:54 65° WSW 13:21:54 65° WSW 13:25:36 10° S
ATLAS 3B R/B 2.6 13:16:49 10° SW 13:23:11 78° SE 13:29:29 10° NE
FENGYUN 3A 4.0 13:20:37 24° NE 13:23:52 64° ESE 13:29:16 10° S
USA 308 4.0 13:25:27 23° SSE 13:25:27 23° SSE 13:26:51 10° SE
Cosmos 1758 4.2 13:25:43 35° W 13:25:55 35° WSW 13:29:40 10° S
Cosmos 1025 Rocket 3.1 13:22:14 10° S 13:26:42 75° E 13:28:01 45° NNE
Cosmos 1455 3.7 13:26:21 23° ENE 13:27:26 27° E 13:30:35 10° SSE
SJ 16-02 3.3 13:28:06 16° W 13:29:31 18° WSW 13:32:37 10° SSW
Meteor 2-10 Rocket 3.8 13:27:53 41° NW 13:29:49 66° WSW 13:35:40 10° S
Cosmos 1934 Rocket 4.1 13:24:50 10° SSW 13:31:10 63° W 13:33:43 37° NNW
Meteor 1-24 Rocket 4.5 13:27:16 10° SSW 13:32:09 33° W 13:33:05 31° WNW
USA 307 4.5 13:34:20 12° E 13:34:20 12° E 13:34:36 10° ESE
Helios 1A Rocket 3.2 13:30:05 10° S 13:33:58 48° WSW 13:34:27 45° W
Cosmos 1605 Rocket 3.9 13:28:40 10° S 13:34:52 86° E 13:38:18 28° N
AQUA 3.8 13:35:40 44° N 13:37:08 72° WNW 13:41:58 10° SSW
BREEZE M DEB (TANK) 3.8 13:38:00 22° SSW 13:38:30 24° S 13:40:36 10° SE
Cosmos 371 Rocket 4.1 13:36:53 29° NNE 13:38:49 44° ENE 13:43:30 10° SSE
Cosmos 2278 4.0 13:33:21 10° SSW 13:39:03 66° ESE 13:44:45 10° NE
Cosmos 2082 Rocket 2.6 13:37:14 34° WNW 13:39:33 55° WSW 13:45:13 10° SSE
NPP 4.4 13:41:28 32° WNW 13:42:28 34° W 13:47:27 10° SSW
Cosmos 1782 Rocket 3.6 13:45:23 46° NNW 13:46:39 72° W 13:51:13 10° S
MSX 4.3 13:45:10 34° NW 13:46:49 42° W 13:52:18 10° SSW
Cosmos 1408 3.9 13:47:30 10° SSW 13:49:33 23° WSW 13:49:33 23° WSW
Cosmos 158 Rocket 4.4 13:46:30 10° SW 13:51:03 39° WNW 13:51:51 36° NW
ATLAS 2AS CENTAUR R/B 3.8 13:46:06 15° W 13:51:05 37° SW 13:57:31 10° SSE
Cosmos 44 Rocket 3.1 13:52:48 41° NW 13:54:27 86° WSW 13:59:08 10° SSE
CZ-2C R/B 3.3 13:53:55 18° NNE 13:58:09 82° ESE 14:03:59 10° SSW
Cosmos 1953 2.5 13:57:22 43° WNW 13:58:11 53° W 14:02:08 10° S
Cosmos 2360 Rocket 3.9 13:54:51 10° S 14:00:01 34° SE 14:05:08 10° ENE
USA 306 2.3 14:00:04 55° WNW 14:00:44 79° SW 14:04:24 10° SE
ISS -3.6 14:03:50 53° N 14:04:17 59° NE 14:07:39 10° ESE
Cosmos 1975 Rocket 3.1 14:03:27 10° SSW 14:07:49 62° W 14:09:35 33° NNW
Cosmos 1315 Rocket 3.3 14:06:07 10° SSW 14:09:56 42° W 14:10:49 36° NW
Meteor 1-21 Rocket 4.2 14:06:12 10° SSW 14:11:49 65° W 14:15:16 23° N
Cosmos 1328 4.0 14:10:07 10° SSW 14:13:57 51° W 14:15:12 36° NNW
MOZ.5/SAFIR/RUBIN 5/SL-8 4.1 14:10:39 10° SSE 14:15:22 64° ENE 14:18:23 21° N
Cosmos 1867 3.9 14:10:24 10° SW 14:15:28 42° WNW 14:18:28 22° N
Genesis I 3.2 14:12:31 10° SW 14:16:08 49° WNW 14:17:20 34° N
Cosmos 2322 Rocket 2.8 14:10:42 10° SSW 14:16:17 57° ESE 14:21:50 10° NE
Cosmos 1633 4.0 14:15:59 10° SW 14:17:41 18° WSW 14:17:41 18° WSW
USA 229 DEB 4.1 14:11:55 10° SSW 14:18:35 60° SE 14:24:40 10° NE
USA 229 4.2 14:11:59 10° SSW 14:18:39 59° SE 14:24:44 10° NE
CZ-2C R/B 3.0 14:15:59 10° NNE 14:21:06 61° ESE 14:26:12 10° S
Cosmos 2333 Rocket 3.7 14:15:53 10° SSW 14:21:13 39° SE 14:26:31 10° NE
ADEOS II 3.2 14:20:36 23° WNW 14:22:04 26° W 14:26:31 10° SW
Thor Agena Rocket 3.5 14:20:19 18° N 14:24:04 66° WNW 14:29:16 10° SSW
Cosmos 1536 Rocket 4.2 14:22:09 10° S 14:26:40 57° E 14:31:05 10° NNE
NOSS 3-1 (A) 3.3 14:24:49 10° SW 14:30:56 53° WNW 14:35:58 10° NNE
SL-16 R/B 4.4 14:26:09 10° SE 14:31:16 26° E 14:36:19 10° NNE
NOSS 3-1 (C) 4.1 14:27:03 10° WSW 14:31:51 25° WNW 14:33:19 22° NW
Resurs 1-4 Rocket 4.0 14:32:37 12° W 14:33:28 13° W 14:35:46 10° WSW
Cosmos 2151 Rocket 3.7 14:30:46 18° N 14:34:06 79° E 14:38:43 10° S
Lacrosse 5 rocket 0.9 14:32:34 10° SW 14:36:15 74° NW 14:39:59 10° NE
ATLAS CENTAUR R/B 1.6 14:32:09 10° SW 14:36:30 51° WNW 14:40:42 10° NNE
Tiangong -0.3 14:37:00 17° NNE 14:37:27 18° NNE 14:39:43 10° ENE
SL-16 R/B 2.2 14:32:11 10° SSW 14:37:52 66° WNW 14:43:29 10° NNE
Cosmos 1892 4.0 14:35:25 10° SW 14:38:18 22° W 14:38:58 21° WNW
BREEZE-M DEB (TANK) 1.2 14:38:03 10° WSW 14:40:08 88° SSE 14:43:14 10° ENE
Cosmos 1459 Rocket 4.1 14:33:56 10° S 14:40:26 87° W 14:46:50 10° N
DNEPR-1 R/B 3.7 14:38:45 22° NW 14:41:30 60° SW 14:45:36 10° SSE
ALOS 2.9 14:39:52 21° NNW 14:42:24 37° W 14:46:46 10° SSW
CZ-2D R/B 4.1 14:42:22 11° W 14:43:30 11° W 14:45:14 10° WSW
PAYLOAD A 3.8 14:40:10 10° NNE 14:44:57 90° WNW 14:49:45 10° SSW
Cosmos 1980 Rocket 3.9 14:43:02 10° WSW 14:45:41 13° W 14:46:30 13° WNW
USA 281 3.2 14:41:19 10° NNE 14:47:54 88° WNW 14:54:35 10° SSW
METEOR-M 4.1 14:42:59 10° N 14:48:19 66° WNW 14:53:44 10° SSW
Cosmos 1825 3.5 14:48:28 10° SW 14:51:12 20° W 14:52:12 18° WNW
Envisat 3.0 14:48:23 10° N 14:53:29 76° WNW 14:58:40 10° SSW
Meteor 1-4 Rocket 3.0 14:51:00 10° SSW 14:54:00 34° W 14:55:36 21° NW
Geosat 4.0 14:49:18 10° NNE 14:54:16 60° WNW 14:59:18 10° SW
Cosmos 332 Rocket 3.8 14:54:27 15° NNW 14:58:27 82° WSW 15:03:22 10° SSE
SL-27 R/B 3.7 14:56:05 10° NNE 14:58:50 31° ENE 15:01:38 10° SE
Cosmos 923 Rocket 4.2 14:55:41 10° SSW 15:00:58 75° ESE 15:06:14 10° NNE
Cosmos 304 Rocket 4.5 14:57:46 16° NW 15:01:12 41° WSW 15:05:50 10° S
Centaur D AC-25 4.2 15:02:16 11° NNW 15:02:16 11° NNW 15:03:17 10° N
Cosmos 1898 Rocket 3.5 14:57:29 13° NNW 15:02:13 89° ENE 15:07:35 10° SSE
Cosmos 1455 3.8 15:00:31 15° WNW 15:02:17 20° WSW 15:05:04 10° SSW
Timation 1 Rocket 4.4 14:58:34 13° NNW 15:03:59 88° ENE 15:10:03 10° SSE
YAOGAN 6 2.3 15:01:20 10° N 15:04:40 72° W 15:08:04 10° SSW
USA 307 3.3 15:06:13 11° W 15:07:59 22° SSW 15:09:53 10° SSE
IRS-1D 4.0 15:03:26 10° N 15:08:26 44° W 15:13:35 10° SSW
Cosmos 2016 Rocket 4.1 15:02:02 10° S 15:08:31 82° W 15:14:55 10° N
Cosmos 1455 Rocket 4.4 15:04:54 10° NNE 15:08:59 39° E 15:13:05 10° SSE
H-2A R/B 4.0 15:04:32 10° NE 15:09:09 33° ESE 15:13:56 10° S
Sich 1 Rocket 4.2 15:06:36 14° NW 15:10:15 43° WSW 15:14:42 10° S
USA 305 3.2 15:09:17 11° W 15:10:45 20° SSW 15:12:19 10° SSE
Cosmos 2123 Rocket 4.1 15:06:12 10° NNW 15:12:26 70° W 15:18:44 10° S
ATLAS 3B R/B 3.7 15:08:46 10° WSW 15:13:04 20° WNW 15:17:23 10° NNW
Cosmos 1937 Rocket 3.5 15:09:14 10° NNW 15:14:23 83° ENE 15:19:36 10° SSE
Cosmos 1346 Rocket 3.1 15:13:44 10° N 15:17:34 68° E 15:21:30 10° SSE
Cosmos 1680 Rocket 3.7 15:12:56 10° SSW 15:18:20 79° ESE 15:23:40 10° NNE
USA 32 4.3 15:15:10 10° N 15:20:25 76° E 15:25:44 10° S
Cosmos 1441 Rocket 3.8 15:21:17 11° NNW 15:24:52 42° WSW 15:28:36 10° S
Cosmos 2112 Rocket 4.2 15:23:35 10° SSW 15:29:00 83° ESE 15:34:22 10° NNE
Cosmos 2233 Rocket 4.1 15:24:15 10° S 15:30:42 85° W 15:37:01 10° N
Okean 2 Rocket 4.4 15:30:36 10° NW 15:34:23 26° WSW 15:38:11 10° SSW
Cosmos 1242 Rocket 2.5 15:31:53 10° SSW 15:35:06 50° W 15:38:18 10° N
Cosmos 372 Rocket 4.2 15:34:15 10° NW 15:39:19 59° WSW 15:44:26 10° SSE
ISS -2.2 15:38:06 10° W 15:41:13 31° SSW 15:44:20 10° SE
H-2A R/B 2.9 15:38:19 10° NNE 15:41:48 68° ESE 15:45:21 10° S
Cosmos 2360 Rocket 2.7 15:38:47 10° SW 15:44:04 40° WNW 15:49:19 10° N
Cosmos 2061 Rocket 4.2 15:42:22 10° SSW 15:48:26 53° W 15:54:26 10° NNW
